QPF
0.02 0.02 0.02 0.01 0.01 0.01 0.01 0.01 0.02 0.01 0.01 0.01 0.01 0.01 0.00 0.00 0.00 0.00 0.00 0.00 0.00 0.00 0.00 0.00 0.00 0.01 0.01 0.01 0.02 0.02 0.02 0.02 0.02 0.03 0.03 0.04 0.04 0.04
0.04 0.03 0.02 0.02 0.01 0.01 0.01 0.02 0.02 0.02 0.02 0.01 0.01 0.01 0.01 0.00 0.00 0.00 0.00 0.00 0.00 0.00 0.00 0.01 0.01 0.00 0.00 0.00 0.00 0.00 0.01 0.01 0.01 0.01 0.02 0.02 0.02 0.02
0.02 0.03 0.03 0.02 0.02 0.02 0.01 0.01 0.01 0.02 0.02 0.01 0.01 0.01 0.01 0.01 0.00 0.00 0.00 0.00 0.00 0.00 0.01 0.01 0.00 0.00 0.00 0.00 0.00 0.00 0.00 0.00 0.00 0.00 0.01 0.01 0.01 0.01
0.01 0.02 0.02 0.01 0.01 0.01 0.01 0.01 0.01 0.01 0.02 0.02 0.01 0.01 0.01 0.01 0.02 0.01 0.01 0.00 0.00 0.00 0.00 0.00 0.00 0.00 0.00 0.00 0.00 0.00 0.00 0.01 0.01 0.01 0.01 0.00 0.01 0.01
0.01 0.01 0.01 0.02 0.03 0.02 0.02 0.01 0.01 0.01 0.01 0.01 0.01 0.01 0.01 0.01 0.01 0.01 0.01 0.01 0.00 0.00 0.00 0.00 0.01 0.01 0.00 0.00 0.00 0.00 0.00 0.01 0.01 0.01 0.01 0.00 0.00 0.00
0.01 0.01 0.01 0.01 0.03 0.03 0.04 0.04 0.03 0.02 0.01 0.01 0.01 0.01 0.01 0.01 0.01 0.01 0.01 0.01 0.00 0.00 0.00 0.00 0.00 0.01 0.01 0.01 0.01 0.00 0.00 0.00 0.00 0.00 0.00 0.00 0.00 0.00
0.01 0.01 0.01 0.01 0.01 0.01 0.02 0.02 0.03 0.03 0.02 0.02 0.01 0.01 0.01 0.01 0.01 0.01 0.01 0.00 0.00 0.00 0.00 0.00 0.00 0.00 0.01 0.01 0.01 0.01 0.00 0.00 0.00 0.00 0.00 0.00 0.00 0.00
0.01 0.01 0.01 0.00 0.00 0.00 0.00 0.00 0.00 0.01 0.01 0.01 0.01 0.01 0.01 0.01 0.01 0.01 0.01 0.01 0.00 0.00 0.00 0.00 0.01 0.01 0.01 0.01 0.01 0.01 0.00 0.00 0.00 0.00 0.00 0.00 0.00 0.00
0.01 0.01 0.01 0.01 0.00 0.00 0.00 0.00 0.00 0.00 0.00 0.00 0.00 0.01 0.01 0.01 0.01 0.01 0.01 0.01 0.01 0.00 0.00 0.00 0.01 0.01 0.01 0.01 0.01 0.01 0.00 0.00 0.00 0.01 0.01 0.01 0.00 0.00
0.01 0.01 0.01 0.01 0.00 0.00 0.00 0.00 0.00 0.00 0.00 0.00 0.00 0.00 0.01 0.01 0.01 0.01 0.01 0.01 0.01 0.01 0.01 0.00 0.00 0.01 0.01 0.01 0.01 0.01 0.00 0.00 0.00 0.00 0.01 0.01 0.01 0.01
0.01 0.01 0.01 0.02 0.01 0.01 0.01 0.00 0.00 0.00 0.00 0.00 0.00 0.00 0.01 0.01 0.01 0.01 0.02 0.02 0.02 0.02 0.01 0.01 0.01 0.01 0.01 0.00 0.01 0.01 0.01 0.01 0.01 0.01 0.01 0.01 0.01 0.01
0.00 0.00 0.01 0.02 0.02 0.01 0.01 0.00 0.00 0.00 0.00 0.00 0.00 0.01 0.01 0.01 0.01 0.01 0.01 0.02 0.02 0.02 0.02 0.01 0.01 0.01 0.01 0.01 0.01 0.01 0.01 0.01 0.01 0.01 0.01 0.01 0.01 0.01
0.00 0.00 0.01 0.01 0.01 0.01 0.01 0.00 0.00 0.00 0.00 0.00 0.00 0.01 0.01 0.01 0.01 0.01 0.01 0.01 0.02 0.02 0.01 0.01 0.01 0.01 0.01 0.01 0.01 0.01 0.01 0.01 0.01 0.01 0.01 0.01 0.01 0.01
0.01 0.01 0.01 0.01 0.01 0.01 0.01 0.01 0.00 0.00 0.00 0.00 0.01 0.01 0.01 0.01 0.01 0.02 0.02 0.01 0.01 0.02 0.01 0.01 0.01 0.01 0.01 0.01 0.01 0.01 0.00 0.00 0.00 0.00 0.00 0.00 0.00 0.00
0.01 0.02 0.02 0.02 0.02 0.01 0.01 0.00 0.00 0.01 0.01 0.01 0.01 0.01 0.01 0.01 0.01 0.02 0.02 0.01 0.01 0.01 0.02 0.02 0.01 0.00 0.00 0.00 0.00 0.00 0.00 0.00 0.00 0.00 0.00 0.00 0.00 0.00
0.02 0.01 0.01 0.01 0.02 0.02 0.01 0.01 0.01 0.01 0.01 0.01 0.01 0.01 0.01 0.01 0.01 0.01 0.01 0.01 0.01 0.01 0.01 0.01 0.01 0.01 0.01 0.00 0.00 0.00 0.00 0.00 0.00 0.00 0.00 0.00 0.00 0.00
0.01 0.01 0.01 0.01 0.01 0.02 0.02 0.02 0.02 0.01 0.01 0.01 0.01 0.01 0.01 0.00 0.00 0.00 0.00 0.00 0.00 0.00 0.01 0.01 0.02 0.02 0.01 0.01 0.01 0.01 0.00 0.00 0.01 0.01 0.01 0.01 0.01 0.01
0.01 0.01 0.01 0.01 0.02 0.02 0.02 0.02 0.02 0.01 0.01 0.01 0.01 0.01 0.01 0.00 0.00 0.00 0.00 0.00 0.00 0.00 0.01 0.01 0.02 0.03 0.02 0.01 0.01 0.01 0.01 0.01 0.01 0.01 0.01 0.01 0.01 0.01
0.01 0.02 0.02 0.02 0.02 0.02 0.02 0.01 0.01 0.02 0.02 0.01 0.01 0.01 0.01 0.01 0.01 0.01 0.01 0.01 0.01 0.01 0.01 0.01 0.01 0.02 0.02 0.02 0.01 0.01 0.01 0.01 0.01 0.01 0.01 0.01 0.01 0.01
0.03 0.03 0.03 0.02 0.02 0.02 0.02 0.02 0.02 0.03 0.02 0.02 0.02 0.02 0.02 0.02 0.02 0.01 0.01 0.02 0.02 0.02 0.02 0.02 0.02 0.02 0.02 0.02 0.02 0.01 0.01 0.01 0.01 0.01 0.01 0.01 0.02 0.02
0.04 0.03 0.03 0.03 0.03 0.02 0.02 0.02 0.03 0.03 0.03 0.03 0.03 0.03 0.03 0.03 0.03 0.02 0.02 0.02 0.01 0.01 0.01 0.02 0.02 0.02 0.02 0.03 0.03 0.03 0.03 0.02 0.02 0.02 0.02 0.02 0.02 0.01
0.04 0.04 0.03 0.02 0.02 0.02 0.03 0.03 0.02 0.02 0.03 0.03 0.03 0.03 0.03 0.04 0.04 0.04 0.03 0.03 0.02 0.02 0.01 0.01 0.01 0.01 0.02 0.02 0.03 0.03 0.03 0.03 0.03 0.03 0.02 0.03 0.03 0.03
0.05 0.03 0.02 0.02 0.01 0.01 0.01 0.01 0.01 0.01 0.01 0.02 0.02 0.03 0.03 0.03 0.03 0.04 0.04 0.04 0.04 0.03 0.02 0.02 0.02 0.02 0.02 0.02 0.03 0.03 0.04 0.04 0.04 0.04 0.03 0.04 0.04 0.04
MSLP
1017.74 1017.91 1018.14 1018.43 1018.77 1019.14 1019.54 1019.96 1020.40 1020.86 1021.31 1021.74 1022.12 1022.42 1022.60 1022.66 1022.58 1022.38 1022.11 1021.81 1021.53 1021.32 1021.20 1021.18 1021.23 1021.32 1021.39 1021.40 1021.30 1021.08 1020.75 1020.32 1019.83 1019.32 1018.84 1018.40 1018.04 1017.74
1017.39 1017.54 1017.75 1018.02 1018.34 1018.69 1019.08 1019.51 1019.96 1020.44 1020.92 1021.40 1021.84 1022.20 1022.47 1022.62 1022.64 1022.54 1022.36 1022.14 1021.92 1021.74 1021.64 1021.61 1021.65 1021.73 1021.80 1021.83 1021.78 1021.63 1021.38 1021.04 1020.65 1020.24 1019.84 1019.46 1019.14 1018.87
1017.04 1017.19 1017.39 1017.64 1017.94 1018.29 1018.67 1019.09 1019.55 1020.03 1020.54 1021.04 1021.52 1021.95 1022.29 1022.53 1022.65 1022.66 1022.58 1022.44 1022.29 1022.16 1022.07 1022.03 1022.04 1022.09 1022.14 1022.16 1022.12 1022.02 1021.84 1021.59 1021.31 1021.01 1020.70 1020.42 1020.17 1019.94
1016.67 1016.82 1017.03 1017.28 1017.57 1017.91 1018.29 1018.71 1019.17 1019.66 1020.17 1020.69 1021.20 1021.66 1022.06 1022.37 1022.59 1022.69 1022.72 1022.68 1022.60 1022.51 1022.44 1022.40 1022.39 1022.39 1022.40 1022.40 1022.36 1022.28 1022.15 1021.99 1021.80 1021.60 1021.40 1021.22 1021.05 1020.89
1016.28 1016.44 1016.65 1016.91 1017.21 1017.55 1017.94 1018.36 1018.81 1019.29 1019.80 1020.32 1020.83 1021.32 1021.75 1022.12 1022.40 1022.60 1022.71 1022.76 1022.76 1022.74 1022.70 1022.66 1022.64 1022.61 1022.59 1022.55 1022.50 1022.43 1022.34 1022.23 1022.12 1022.01 1021.91 1021.82 1021.73 1021.65
1015.87 1016.03 1016.25 1016.51 1016.82 1017.18 1017.57 1017.99 1018.44 1018.91 1019.40 1019.90 1020.40 1020.88 1021.32 1021.71 1022.04 1022.31 1022.50 1022.64 1022.72 1022.76 1022.77 1022.76 1022.74 1022.71 1022.66 1022.61 1022.55 1022.48 1022.41 1022.35 1022.30 1022.26 1022.23 1022.22 1022.20 1022.18
1015.43 1015.59 1015.80 1016.08 1016.40 1016.76 1017.16 1017.58 1018.02 1018.47 1018.93 1019.40 1019.86 1020.30 1020.73 1021.12 1021.48 1021.79 1022.04 1022.25 1022.41 1022.52 1022.60 1022.64 1022.65 1022.64 1022.60 1022.54 1022.48 1022.43 1022.38 1022.35 1022.34 1022.36 1022.39 1022.43 1022.48 1022.51
1014.97 1015.12 1015.33 1015.60 1015.93 1016.30 1016.69 1017.11 1017.53 1017.95 1018.37 1018.79 1019.20 1019.60 1019.99 1020.36 1020.71 1021.04 1021.34 1021.61 1021.84 1022.03 1022.18 1022.28 1022.35 1022.37 1022.37 1022.34 1022.30 1022.26 1022.24 1022.24 1022.27 1022.33 1022.41 1022.50 1022.58 1022.65
1014.51 1014.64 1014.84 1015.11 1015.43 1015.79 1016.18 1016.58 1016.98 1017.36 1017.74 1018.10 1018.44 1018.78 1019.12 1019.46 1019.79 1020.12 1020.45 1020.76 1021.05 1021.31 1021.53 1021.71 1021.84 1021.92 1021.97 1021.98 1021.97 1021.97 1021.98 1022.02 1022.08 1022.18 1022.30 1022.43 1022.56 1022.67
1014.05 1014.18 1014.37 1014.63 1014.94 1015.28 1015.65 1016.02 1016.38 1016.72 1017.05 1017.35 1017.64 1017.92 1018.21 1018.50 1018.81 1019.13 1019.47 1019.81 1020.14 1020.46 1020.74 1020.98 1021.17 1021.32 1021.42 1021.48 1021.52 1021.56 1021.61 1021.68 1021.79 1021.93 1022.09 1022.26 1022.43 1022.58
1013.61 1013.73 1013.92 1014.17 1014.46 1014.78 1015.12 1015.45 1015.78 1016.08 1016.35 1016.61 1016.85 1017.09 1017.33 1017.59 1017.87 1018.18 1018.52 1018.87 1019.22 1019.57 1019.89 1020.18 1020.42 1020.62 1020.76 1020.87 1020.96 1021.04 1021.13 1021.25 1021.39 1021.57 1021.77 1021.99 1022.21 1022.41
1013.16 1013.30 1013.49 1013.73 1014.00 1014.30 1014.60 1014.90 1015.19 1015.46 1015.70 1015.93 1016.14 1016.35 1016.57 1016.80 1017.07 1017.36 1017.69 1018.03 1018.39 1018.75 1019.09 1019.40 1019.66 1019.89 1020.06 1020.21 1020.33 1020.44 1020.56 1020.71 1020.90 1021.11 1021.36 1021.62 1021.89 1022.14
1012.68 1012.85 1013.06 1013.29 1013.55 1013.82 1014.10 1014.37 1014.63 1014.88 1015.11 1015.32 1015.53 1015.73 1015.95 1016.18 1016.44 1016.72 1017.03 1017.36 1017.70 1018.05 1018.38 1018.68 1018.95 1019.17 1019.36 1019.52 1019.65 1019.79 1019.93 1020.11 1020.31 1020.56 1020.84 1021.14 1021.45 1021.74
1012.13 1012.35 1012.57 1012.82 1013.07 1013.32 1013.58 1013.84 1014.09 1014.33 1014.56 1014.79 1015.01 1015.23 1015.47 1015.71 1015.97 1016.24 1016.54 1016.84 1017.16 1017.47 1017.76 1018.04 1018.28 1018.50 1018.68 1018.83 1018.97 1019.11 1019.26 1019.44 1019.66 1019.92 1020.22 1020.54 1020.88 1021.21
1011.48 1011.74 1011.99 1012.25 1012.51 1012.76 1013.01 1013.26 1013.52 1013.77 1014.03 1014.28 1014.54 1014.80 1015.06 1015.33 1015.59 1015.87 1016.14 1016.42 1016.69 1016.96 1017.21 1017.45 1017.66 1017.85 1018.02 1018.16 1018.29 1018.43 1018.58 1018.76 1018.98 1019.23 1019.53 1019.85 1020.20 1020.54
1010.69 1010.99 1011.28 1011.56 1011.83 1012.09 1012.34 1012.60 1012.88 1013.16 1013.45 1013.75 1014.05 1014.36 1014.65 1014.94 1015.22 1015.48 1015.74 1015.98 1016.21 1016.44 1016.65 1016.85 1017.04 1017.20 1017.35 1017.50 1017.63 1017.76 1017.91 1018.08 1018.28 1018.52 1018.80 1019.11 1019.44 1019.78
1009.76 1010.10 1010.41 1010.71 1010.99 1011.27 1011.54 1011.83 1012.12 1012.44 1012.78 1013.12 1013.47 1013.82 1014.14 1014.45 1014.73 1014.99 1015.22 1015.43 1015.63 1015.82 1016.00 1016.17 1016.35 1016.51 1016.67 1016.82 1016.97 1017.11 1017.27 1017.43 1017.62 1017.84 1018.09 1018.36 1018.67 1018.99
1008.70 1009.05 1009.39 1009.70 1010.00 1010.29 1010.59 1010.90 1011.23 1011.58 1011.96 1012.35 1012.73 1013.10 1013.45 1013.77 1014.04 1014.29 1014.50 1014.68 1014.85 1015.02 1015.19 1015.37 1015.55 1015.74 1015.93 1016.12 1016.31 1016.49 1016.67 1016.84 1017.03 1017.23 1017.45 1017.69 1017.96 1018.25
1007.55 1007.90 1008.23 1008.55 1008.85 1009.16 1009.48 1009.82 1010.18 1010.57 1010.97 1011.39 1011.80 1012.19 1012.55 1012.86 1013.13 1013.35 1013.54 1013.71 1013.87 1014.03 1014.21 1014.41 1014.64 1014.88 1015.13 1015.39 1015.64 1015.88 1016.11 1016.32 1016.52 1016.72 1016.92 1017.14 1017.38 1017.64
1006.34 1006.66 1006.97 1007.28 1007.59 1007.91 1008.24 1008.60 1008.99 1009.40 1009.83 1010.26 1010.68 1011.07 1011.43 1011.73 1011.99 1012.20 1012.38 1012.54 1012.70 1012.88 1013.09 1013.34 1013.63 1013.95 1014.28 1014.63 1014.97 1015.29 1015.58 1015.85 1016.08 1016.30 1016.51 1016.73 1016.95 1017.21
1005.09 1005.36 1005.65 1005.94 1006.24 1006.56 1006.90 1007.27 1007.67 1008.09 1008.53 1008.97 1009.39 1009.78 1010.13 1010.43 1010.68 1010.88 1011.06 1011.23 1011.42 1011.63 1011.89 1012.20 1012.56 1012.97 1013.40 1013.84 1014.28 1014.69 1015.07 1015.41 1015.70 1015.96 1016.21 1016.44 1016.68 1016.94
1003.81 1004.04 1004.28 1004.55 1004.83 1005.14 1005.48 1005.86 1006.26 1006.69 1007.13 1007.56 1007.99 1008.38 1008.72 1009.02 1009.27 1009.49 1009.69 1009.88 1010.11 1010.37 1010.68 1011.06 1011.49 1011.98 1012.50 1013.04 1013.57 1014.07 1014.54 1014.96 1015.33 1015.65 1015.95 1016.23 1016.51 1016.80
1002.52 1002.69 1002.89 1003.13 1003.39 1003.69 1004.03 1004.40 1004.79 1005.22 1005.66 1006.10 1006.52 1006.91 1007.27 1007.58 1007.85 1008.10 1008.33 1008.57 1008.84 1009.15 1009.52 1009.96 1010.46 1011.01 1011.60 1012.21 1012.82 1013.40 1013.95 1014.45 1014.90 1015.30 1015.67 1016.02 1016.36 1016.71
Thickness
5679 5678 5676 5675 5673 5671 5669 5665 5658 5651 5650 5651 5652 5654 5654 5653 5652 5652 5651 5651 5650 5650 5650 5649 5649 5648 5648 5648 5648 5648 5648 5648 5648 5649 5649 5648 5648 5648
5677 5676 5674 5673 5671 5669 5667 5664 5661 5656 5649 5649 5650 5651 5650 5650 5649 5648 5647 5646 5646 5646 5645 5645 5644 5644 5643 5643 5643 5642 5642 5642 5642 5642 5642 5641 5641 5641
5674 5673 5671 5671 5669 5667 5664 5662 5659 5656 5649 5647 5647 5648 5647 5646 5645 5644 5643 5642 5642 5641 5641 5640 5640 5639 5638 5637 5637 5636 5636 5636 5635 5635 5635 5635 5634 5634
5670 5669 5668 5668 5666 5664 5661 5659 5656 5654 5650 5645 5644 5644 5643 5643 5642 5641 5640 5639 5638 5638 5637 5636 5635 5634 5633 5632 5631 5630 5630 5629 5629 5629 5629 5628 5627 5627
5668 5667 5666 5664 5662 5661 5659 5657 5654 5653 5649 5645 5642 5640 5640 5639 5638 5637 5637 5636 5635 5634 5633 5632 5630 5629 5628 5627 5626 5625 5624 5623 5622 5621 5621 5620 5619 5619
5665 5664 5663 5662 5660 5658 5656 5654 5652 5648 5645 5642 5639 5637 5635 5635 5634 5632 5631 5630 5630 5630 5629 5627 5626 5624 5623 5622 5621 5620 5618 5617 5616 5615 5614 5613 5612 5611
5661 5661 5661 5660 5659 5658 5655 5652 5649 5645 5641 5638 5635 5633 5631 5630 5629 5628 5626 5625 5625 5624 5623 5622 5620 5619 5618 5617 5616 5614 5613 5612 5611 5609 5608 5606 5605 5604
5657 5657 5657 5657 5656 5655 5654 5652 5649 5644 5639 5635 5632 5629 5628 5627 5626 5625 5622 5620 5618 5620 5617 5616 5615 5613 5613 5612 5611 5609 5608 5607 5605 5603 5601 5600 5598 5596
5653 5653 5653 5653 5652 5650 5649 5648 5645 5644 5642 5637 5632 5630 5628 5627 5624 5621 5619 5616 5615 5615 5612 5610 5609 5607 5608 5607 5605 5604 5602 5601 5599 5597 5595 5593 5591 5589
5650 5649 5648 5647 5647 5646 5643 5641 5639 5638 5637 5636 5633 5632 5630 5628 5625 5622 5618 5615 5612 5611 5609 5604 5603 5602 5603 5601 5600 5598 5596 5594 5592 5590 5588 5586 5584 5581
5646 5646 5645 5643 5643 5642 5638 5635 5634 5633 5633 5632 5631 5629 5628 5626 5623 5618 5614 5610 5606 5605 5604 5600 5598 5596 5595 5595 5594 5592 5590 5588 5585 5583 5581 5578 5576 5574
5642 5641 5641 5640 5639 5637 5634 5631 5628 5628 5627 5626 5625 5623 5622 5620 5618 5616 5612 5607 5603 5600 5600 5597 5594 5591 5588 5588 5587 5585 5583 5581 5578 5576 5573 5571 5568 5565
5637 5636 5637 5636 5634 5632 5630 5628 5627 5625 5622 5620 5618 5617 5616 5614 5613 5611 5609 5606 5601 5598 5597 5594 5590 5585 5582 5580 5579 5578 5576 5574 5571 5569 5566 5563 5561 5558
5633 5632 5632 5631 5630 5628 5625 5624 5622 5619 5616 5613 5610 5609 5608 5607 5606 5605 5603 5602 5600 5597 5594 5591 5586 5582 5577 5573 5571 5571 5569 5566 5564 5561 5559 5556 5554 5551
5628 5628 5627 5626 5624 5621 5619 5618 5615 5612 5609 5605 5604 5603 5603 5602 5600 5598 5597 5595 5594 5591 5589 5586 5583 5579 5575 5570 5566 5564 5561 5560 5557 5554 5552 5549 5546 5544
5621 5620 5619 5616 5614 5613 5611 5609 5607 5605 5602 5600 5598 5598 5597 5595 5593 5591 5589 5587 5585 5584 5583 5581 5578 5574 5570 5566 5562 5559 5555 5552 5551 5548 5545 5543 5540 5538
5614 5611 5608 5606 5604 5602 5600 5599 5597 5596 5594 5592 5591 5590 5589 5587 5586 5584 5582 5580 5577 5576 5575 5573 5571 5569 5566 5561 5557 5554 5550 5547 5545 5542 5538 5535 5534 5532
5607 5603 5601 5598 5597 5595 5592 5590 5589 5587 5587 5586 5584 5583 5582 5581 5579 5577 5575 5573 5572 5570 5568 5566 5563 5560 5556 5555 5553 5549 5545 5542 5539 5536 5532 5528 5527 5526
5599 5597 5595 5592 5589 5587 5585 5583 5581 5580 5580 5579 5578 5576 5575 5574 5573 5571 5569 5567 5565 5564 5562 5559 5555 5552 5549 5548 5548 5544 5539 5536 5532 5528 5525 5521 5519 5519
5593 5591 5589 5586 5583 5580 5578 5576 5575 5574 5572 5571 5570 5569 5568 5567 5566 5564 5563 5561 5559 5558 5555 5552 5549 5547 5544 5542 5540 5536 5533 5529 5525 5521 5518 5515 5512 5511
5587 5585 5583 5580 5578 5575 5573 5571 5570 5568 5567 5565 5564 5563 5562 5560 5559 5558 5557 5556 5553 5551 5549 5547 5546 5543 5539 5534 5530 5528 5525 5522 5518 5514 5511 5506 5503 5501
5582 5580 5578 5576 5574 5571 5569 5567 5564 5563 5561 5560 5559 5558 5556 5554 5553 5552 5550 5548 5547 5546 5544 5542 5539 5535 5530 5526 5523 5520 5516 5513 5510 5506 5502 5498 5494 5491
5577 5575 5573 5571 5569 5567 5565 5562 5559 5558 5556 5555 5553 5552 5550 5548 5547 5545 5544 5542 5540 5539 5536 5533 5529 5526 5523 5520 5516 5512 5509 5504 5500 5497 5494 5491 5487 5484